Find Starlink 37857

NORAD ID: 69429 Int'l Des: 2026-126 Owner: SPXS Country: US Constellation: starlink operational
LEOCIRCULARRETROGRADE

現在のビュー

3D地球を読み込み中...

About Starlink 37857

Starlink 37857 (NORAD 69429) is a starlink constellation satellite launched Jun 7, 2026 by SPXS of US. It operates in LEO, CIRCULAR, RETROGRADE orbit with a mass of 575.00 kg.

次回通過

Passes for default location (London). Set your location on the main map for personalized predictions.

高度履歴

Loading altitude history...

軌道要素

1 69429U 26126K 26207.25003472 .00003028 00000-0 57437-4 0 9990
2 69429 97.2844 69.1008 0001846 82.6667 213.5053 15.49130564 6007
Epoch: Jul 26, 2026 • Age: 6 hours

現在のステータス

高度 422.8 km
遠地点 / 近地点 N/A
速度 7.66 km/s
衛星直下点 -3.65°S, 61.3°W
打ち上げ日 Jun 7, 2026
運用期間 0.1 years
タイプ internet

技術仕様

分類 Payload
質量 575.00 kg
乾燥質量 530.00 kg
総質量 575.00 kg
長さ 0.30 m
直径 4.10 m
スパン 29.00 m
形状 Box + pan
製造者 SPXS
バスタイプ Starlink V2MO
フェーズステータス In Orbit
所有者/国 SPXS/US

Most Searched